N2UGS-WX Weather Reports


Display with metric or nautical units.
time (UTC)temp
F
wind
direction
speed
MPH
gust
MPH
rain 1hr
in
rain 24hr
in
rain mn
in
humidity
%
barometer
mb
20260904204902 76 308 0.0 4.0 0.00 0.00 0.01 65 1014.2
20260904203402 77 30 2.0 4.0 0.00 0.00 0.01 63 1014.2
20260904202001 78 313 2.0 3.0 0.00 0.00 0.01 61 1014.6
20260904200502 80 336 2.0 6.0 0.00 0.00 0.01 60 1014.6
20260904195403 80 39 4.0 4.0 0.00 0.00 0.01 58 1014.6
20260904194001 79 309 2.0 6.0 0.00 0.00 0.01 60 1014.9
20260904192902 80 55 6.0 6.0 0.00 0.00 0.01 60 1014.9
20260904191502 78 27 3.0 6.0 0.00 0.00 0.01 60 1015.2
20260904190402 78 35 6.0 8.0 0.00 0.00 0.01 59 1015.2
20260904185001 79 329 5.0 9.0 0.00 0.00 0.01 59 1015.6
20260904183502 78 229 1.0 3.0 0.00 0.00 0.01 61 1015.6
20260904182402 78 351 1.0 7.0 0.00 0.00 0.01 61 1015.6
20260904181002 79 272 2.0 4.0 0.00 0.00 0.01 61 1015.6
20260904175503 80 257 5.0 7.0 0.00 0.00 0.01 55 1015.6
20260904174502 81 196 3.0 9.0 0.00 0.00 0.01 52 1015.6
20260904173002 80 345 1.0 4.0 0.00 0.00 0.01 56 1015.9
20260904171502 80 302 4.0 6.0 0.00 0.00 0.01 57 1015.9
20260904170002 80 25 3.0 7.0 0.00 0.00 0.01 57 1016.3
20260904164902 80 327 2.0 10.0 0.00 0.00 0.01 58 1016.3
20260904163402 79 318 1.0 9.0 0.00 0.00 0.01 58 1016.3
20260904161902 80 28 1.0 6.0 0.00 0.00 0.01 54 1016.6
20260904160502 79 47 1.0 5.0 0.00 0.00 0.01 59 1016.6
20260904155403 78 293 4.0 6.0 0.00 0.00 0.01 60 1016.6
20260904153902 80 337 6.0 6.0 0.00 0.00 0.01 60 1016.3
20260904152402 77 15 2.0 6.0 0.00 0.00 0.01 67 1016.3
20260904151002 77 302 4.0 9.0 0.00 0.00 0.01 65 1016.3
20260904145402 75 227 0.0 2.0 0.00 0.00 0.01 68 1016.6
20260904144002 74 130 1.0 5.0 0.00 0.00 0.01 72 1016.3
20260904142902 74 255 0.0 4.0 0.00 0.00 0.01 70 1015.9
20260904141503 74 166 0.0 2.0 0.00 0.00 0.01 74 1015.9
20260904140002 70 310 0.0 4.0 0.00 0.00 0.01 82 1015.9
20260904134503 68 335 2.0 2.0 0.00 0.00 0.01 94 1016.3
20260904133003 67 323 0.0 0.0 0.00 0.00 0.01 99 1016.3
20260904132001 67 68 0.0 2.0 0.00 0.00 0.01 100 1016.3
20260904130502 66 333 1.0 1.0 0.00 0.00 0.01 100 1016.6
20260904125402 66 45 0.0 0.0 0.00 0.00 0.01 100 1016.3
20260904124002 65 44 0.0 2.0 0.00 0.00 0.01 100 1016.6
20260904122903 65 323 0.0 0.0 0.00 0.00 0.01 100 1016.3
20260904121502 65 318 0.0 0.0 0.00 0.00 0.01 100 1016.3
20260904120003 64 295 0.0 0.0 0.00 0.00 0.01 100 1016.3
20260904114503 64 278 0.0 0.0 0.00 0.00 0.01 100 1015.9
20260904113501 64 316 0.0 0.0 0.00 0.00 0.01 100 1015.6
20260904112004 64 299 0.0 0.0 0.00 0.00 0.01 100 1015.6
20260904110503 64 306 0.0 0.0 0.00 0.00 0.01 100 1015.6
20260904105502 64 322 0.0 0.0 0.00 0.00 0.01 100 1015.6
20260904103903 65 307 0.0 0.0 0.00 0.00 0.01 100 1015.6
20260904102402 64 344 0.0 0.0 0.00 0.00 0.01 100 1015.6
20260904100901 64 319 0.0 0.0 0.00 0.00 0.01 100 1015.6
20260904095401 64 290 0.0 0.0 0.00 0.00 0.01 100 1015.6
20260904093902 65 305 0.0 0.0 0.00 0.00 0.01 100 1015.2
20260904092402 65 298 0.0 0.0 0.00 0.00 0.01 100 1015.2
20260904090902 65 326 0.0 0.0 0.00 0.00 0.01 100 1015.2
20260904085902 65 305 0.0 0.0 0.00 0.00 0.01 100 1015.2
20260904084502 65 293 0.0 0.0 0.00 0.00 0.01 100 1015.2
20260904083402 66 311 0.0 0.0 0.00 0.00 0.01 100 1015.2
20260904081901 66 312 0.0 0.0 0.00 0.00 0.01 100 1015.2
20260904080402 66 5 0.0 0.0 0.00 0.00 0.01 100 1014.9
20260904074902 66 313 0.0 0.0 0.00 0.00 0.01 100 1014.9
20260904073402 66 313 0.0 0.0 0.00 0.00 0.01 100 1014.6
20260904071902 65 303 0.0 0.0 0.00 0.00 0.01 100 1014.6
20260904065902 65 313 0.0 0.0 0.00 0.00 0.01 100 1014.9
20260904064402 65 306 0.0 0.0 0.01 0.00 0.01 100 1014.9
20260904063002 66 309 0.0 0.0 0.01 0.00 0.01 99 1014.6
20260904061902 66 311 0.0 0.0 0.01 0.00 0.01 100 1014.6
20260904060501 67 340 0.0 0.0 0.01 0.00 0.01 100 1014.6
20260904055403 67 291 0.0 0.0 0.00 0.00 0.00 100 1014.9
20260904054001 68 333 0.0 0.0 0.00 0.00 0.00 99 1014.9
20260904052502 68 290 0.0 0.0 0.00 0.00 0.00 99 1014.9
20260904051002 69 336 0.0 0.0 0.00 0.00 0.00 99 1015.2
20260904045501 69 307 0.0 0.0 0.00 0.00 0.00 100 1015.2
20260904043902 69 287 0.0 0.0 0.00 0.00 0.00 100 1015.2
20260904042901 69 330 0.0 0.0 0.00 0.00 0.00 99 1014.9
20260904041502 69 311 0.0 0.0 0.00 0.00 0.00 99 1015.2
20260904040003 69 306 0.0 0.0 0.00 0.00 0.00 99 1014.9
20260904035001 69 316 0.0 0.0 0.00 0.00 1.53 99 1014.9
20260904033902 68 290 0.0 0.0 0.00 0.00 1.53 99 1014.9
20260904032403 68 312 0.0 0.0 0.00 0.00 1.53 99 1014.9
20260904031002 69 237 0.0 0.0 0.00 0.00 1.53 99 1014.6
20260904025902 68 311 0.0 0.0 0.00 0.00 1.53 99 1014.6
20260904024501 69 284 0.0 0.0 0.00 0.00 1.53 99 1014.6
20260904023002 69 298 0.0 0.0 0.00 0.00 1.53 99 1014.2
20260904021402 70 318 0.0 0.0 0.00 0.00 1.53 99 1014.6
20260904020002 70 333 0.0 0.0 0.00 0.00 1.53 99 1014.6
20260904015001 71 279 0.0 1.0 0.03 0.00 1.53 99 1014.6
20260904013902 71 43 0.0 2.0 0.04 0.00 1.53 99 1014.6
20260904012502 71 70 0.0 0.0 0.06 0.00 1.53 99 1014.2
20260904011002 71 326 0.0 0.0 0.21 0.00 1.53 98 1013.9
20260904005502 71 216 0.0 0.0 0.24 0.00 1.51 98 1013.5
20260904004502 71 209 0.0 0.0 0.47 0.00 1.49 98 1013.5
20260904003002 71 359 0.0 0.0 0.85 0.00 1.47 98 1013.5
20260904001502 71 283 0.0 0.0 0.74 0.00 1.33 98 1013.9
20260904000501 71 31 2.0 5.0 0.76 0.00 1.31 98 1013.9
20260903235003 73 47 5.0 8.0 0.94 0.00 0.98 97 1013.5
20260903234002 73 311 2.0 5.0 0.73 0.00 0.73 97 1013.5
20260903232502 73 312 6.0 6.0 0.59 0.00 0.59 96 1013.9
20260903231001 74 271 2.0 4.0 0.55 0.00 0.55 95 1013.9
20260903225503 76 319 0.0 3.0 0.11 0.00 0.11 90 1013.9
20260903224003 77 248 4.0 4.0 0.00 0.00 0.00 84 1013.9
20260903222503 78 286 2.0 3.0 0.00 0.00 0.00 82 1013.5
20260903221001 78 224 6.0 6.0 0.00 0.00 0.00 80 1013.2
20260903215902 79 314 1.0 8.0 0.00 0.00 0.00 79 1013.2
20260903214402 80 273 0.0 5.0 0.00 0.00 0.00 78 1012.9
20260903213003 79 264 1.0 3.0 0.00 0.00 0.00 78 1012.9
20260903211502 79 269 3.0 8.0 0.00 0.00 0.00 77 1013.2